Theta_e
329 329 329 322 317 317 316 316 318 319 320 321 320 317 312 307 304 303 305 307 307 307 306 304 304 304 307 307 308 309 308 308 308 307 308 307 306 306 305 304 303 303 306
326 327 324 319 317 317 317 318 319 321 322 321 319 314 308 305 302 303 305 305 305 304 303 303 303 305 306 306 306 306 306 305 305 305 305 305 305 305 304 302 306 306 304
321 322 321 320 317 318 319 319 321 322 322 318 314 309 305 302 303 304 304 303 303 303 302 302 301 301 305 305 304 304 304 303 304 303 304 304 304 304 304 305 306 306 306
320 321 320 317 318 319 320 321 322 321 320 313 309 304 302 303 304 304 303 302 301 300 300 299 300 302 304 304 304 303 303 303 303 303 303 303 303 303 303 304 304 305 305
320 317 317 319 319 320 321 322 321 318 314 310 305 302 304 304 303 302 300 299 298 298 298 298 299 300 301 302 302 302 303 303 303 303 303 303 302 302 303 304 304 304 304
317 316 319 319 320 321 322 322 320 314 310 306 303 304 304 303 301 299 298 298 298 298 300 300 300 300 300 301 300 301 301 300 302 301 302 302 302 302 302 302 304 303 303
318 318 319 321 322 322 322 320 316 310 309 304 304 303 302 300 298 298 298 298 300 300 300 300 301 301 300 300 299 299 299 299 299 299 301 301 301 302 302 302 302 303 303
319 320 321 323 323 322 320 316 310 309 305 303 303 302 300 298 299 299 299 299 300 299 300 301 300 299 298 298 297 299 299 300 298 299 298 298 300 300 301 302 302 302 302
321 322 323 324 323 322 317 312 309 306 303 303 302 300 299 298 298 299 299 299 299 300 300 299 298 297 297 297 296 298 299 299 298 297 297 298 300 300 300 301 302 302 302
322 323 324 324 323 319 311 309 307 303 303 300 300 299 298 298 299 299 299 300 300 301 300 298 297 298 298 297 295 297 298 298 297 298 299 300 300 300 300 300 302 301 302
323 324 324 323 319 312 309 307 304 302 298 298 298 298 298 299 299 299 299 299 299 301 300 300 298 298 298 297 296 296 296 297 298 299 299 299 300 300 300 299 300 302 302
324 325 322 317 311 309 308 304 301 297 296 296 296 297 297 298 299 298 298 299 299 298 299 298 298 298 298 297 296 296 296 296 297 296 297 298 298 299 299 299 299 300 300
324 321 315 310 309 308 304 300 298 299 297 296 297 299 297 297 298 298 299 299 299 298 298 298 298 298 297 297 296 296 296 296 296 296 295 295 297 298 298 300 300 300 301
320 313 310 310 308 304 300 298 300 300 300 298 298 299 299 297 298 298 299 299 298 299 298 298 298 298 297 296 297 296 294 292 293 295 294 294 296 298 299 299 300 301 301
316 314 311 308 307 302 298 300 301 301 301 301 300 299 299 299 299 299 299 299 298 298 298 299 299 298 298 298 297 297 297 295 294 294 294 294 294 297 299 300 299 299 298
316 311 309 308 305 300 300 301 302 302 302 302 302 301 299 299 298 298 298 299 298 298 299 300 299 298 298 298 298 298 298 297 296 294 293 293 294 296 297 298 298 298 297
313 310 308 307 303 300 300 301 303 302 302 303 303 303 302 300 299 297 298 298 298 298 300 300 300 299 298 298 298 298 298 298 298 296 295 293 293 294 296 297 297 298 298
312 310 308 306 302 301 301 303 304 304 304 304 303 303 303 301 301 300 298 298 299 299 300 300 300 299 298 298 299 299 299 299 298 298 297 296 294 294 294 296 297 297 297
310 309 308 305 302 302 303 303 304 304 304 304 303 303 303 301 300 298 298 298 300 300 300 300 300 300 300 299 298 298 298 299 298 299 298 299 299 297 296 296 296 296 296
309 307 306 304 303 303 303 304 304 303 303 303 303 303 301 300 300 298 298 298 299 300 300 300 300 299 299 299 299 299 299 300 299 299 298 298 299 299 297 297 297 296 296
307 306 305 305 304 304 304 304 304 303 302 302 302 302 300 300 300 300 300 300 299 300 300 300 300 300 299 299 299 299 300 300 300 300 299 299 299 298 298 297 298 297 296
307 306 305 305 304 304 304 304 302 302 302 302 302 301 301 301 301 301 301 300 300 299 299 299 299 299 299 299 299 300 300 301 301 300 300 299 298 297 297 298 298 298 297
307 306 306 305 305 304 303 303 302 302 302 302 302 302 302 301 301 301 301 301 300 300 298 299 299 299 299 299 299 300 300 300 300 300 300 299 299 298 298 297 297 296 297
306 305 305 304 304 303 303 303 303 303 303 302 302 302 302 302 302 302 302 302 301 300 300 299 300 300 300 300 300 300 300 301 300 301 300 299 299 298 298 298 298 296 295
304 305 305 304 304 303 304 304 304 304 303 303 303 302 302 302 302 302 302 302 302 302 302 302 302 302 302 302 301 301 302 303 303 301 301 301 300 299 299 298 297 296 295
305 304 304 305 304 304 305 304 304 304 304 303 303 302 302 302 302 302 302 302 303 303 303 303 303 303 303 303 303 304 303 304 303 303 303 302 301 301 299 297 297 295 294
Wind_Speed
29 31 29 26 24 22 18 14 11 9 8 8 8 9 13 15 15 12 9 8 8 9 11 12 13 13 11 11 10 10 11 12 16 19 19 20 25 24 27 29 26 24 22
30 31 30 27 24 22 19 15 12 10 7 8 10 11 15 15 12 9 7 8 10 11 12 12 13 12 12 12 11 12 12 14 17 22 21 22 21 22 24 27 23 19 21
30 31 30 28 25 22 18 15 12 11 9 9 9 12 14 11 7 7 7 8 9 10 12 14 15 14 11 10 12 12 14 17 17 18 21 20 20 20 21 20 20 20 18
32 32 31 29 24 21 19 17 14 11 10 7 10 12 8 4 5 6 8 10 10 12 13 13 11 9 8 10 10 14 15 16 16 17 19 19 19 20 19 21 22 20 22
35 34 31 27 23 21 21 17 14 11 7 7 9 6 3 3 5 7 10 12 11 10 9 9 8 7 8 9 11 15 14 14 15 16 19 19 20 22 22 22 22 23 22
36 33 29 27 24 23 21 18 14 8 5 5 5 3 3 3 7 10 10 9 9 9 9 9 7 8 10 12 12 13 13 14 15 18 18 19 21 20 21 23 22 25 26
37 35 33 31 29 26 21 18 13 8 5 6 4 3 2 3 6 6 7 7 8 9 10 9 8 9 12 13 13 13 13 15 15 15 15 17 21 19 20 21 21 22 23
39 37 37 34 29 26 22 16 10 7 5 6 6 4 2 1 3 5 5 5 6 9 10 10 10 11 14 17 17 14 13 12 15 15 18 20 18 17 19 20 21 22 20
40 40 36 32 29 25 21 15 11 7 7 9 7 5 2 1 1 4 5 5 6 7 8 9 11 14 18 19 17 14 13 12 13 15 16 15 15 16 20 20 19 21 23
41 40 36 32 29 25 19 14 10 8 10 9 8 5 4 3 3 3 4 5 6 5 7 9 12 16 19 20 17 15 13 15 18 18 16 14 15 13 17 15 15 20 21
38 36 34 31 27 21 18 13 10 11 11 11 8 7 5 4 3 3 5 6 5 5 6 8 11 16 20 20 17 16 16 18 16 15 14 14 13 13 14 17 13 15 17
37 35 34 30 26 20 14 13 14 14 13 11 10 8 6 4 4 5 5 6 7 8 10 12 12 16 19 18 15 15 15 15 14 15 14 14 14 14 15 16 15 13 15
32 35 33 29 22 15 14 17 20 17 14 12 11 8 6 6 6 5 5 7 7 9 11 12 13 15 17 14 15 16 16 15 15 15 15 14 13 14 14 14 12 12 11
32 31 28 22 19 17 18 22 21 18 15 13 12 9 6 6 6 5 4 5 5 8 12 13 12 13 14 13 13 14 16 17 16 14 14 14 13 12 12 13 12 12 13
31 27 24 21 17 19 23 23 19 15 13 11 10 7 6 5 4 3 1 4 6 8 10 10 8 8 8 9 11 13 13 15 15 15 14 15 13 11 11 11 13 13 14
28 31 28 23 21 25 26 22 18 15 13 10 8 6 4 3 2 3 3 4 5 7 7 8 7 7 7 8 10 12 13 16 20 18 15 14 13 11 10 10 11 13 15
34 32 29 24 24 29 27 23 19 15 13 10 8 8 7 7 5 5 5 4 4 5 4 5 6 5 5 6 7 9 12 17 20 18 17 15 14 12 10 10 11 12 14
31 28 26 23 26 29 27 19 16 14 13 11 11 8 8 9 10 9 7 6 5 4 5 5 5 5 4 5 5 7 9 12 14 17 17 19 18 14 12 11 12 12 14
29 25 24 24 26 24 21 17 16 15 13 11 12 11 10 9 7 8 9 8 6 7 7 6 6 5 6 6 6 9 10 10 13 15 14 18 21 20 14 12 12 15 16
26 23 27 26 25 24 21 19 17 15 13 12 11 9 9 10 7 6 9 9 9 9 9 9 8 8 8 8 8 10 11 10 10 10 12 15 17 20 16 16 14 14 15
28 26 30 27 23 22 21 19 16 13 11 11 12 10 7 9 8 7 7 8 10 10 11 11 10 11 11 12 12 14 13 12 12 13 14 14 18 15 17 15 16 15 15
27 27 33 27 24 23 21 19 18 15 12 13 12 11 9 8 8 9 10 11 12 13 14 14 15 15 15 16 17 17 16 16 16 16 16 15 14 14 13 14 19 17 16
27 27 28 26 26 24 25 22 20 16 14 13 12 11 11 11 11 10 10 11 13 15 16 17 17 17 16 16 16 18 20 21 21 21 23 21 18 15 17 16 22 19 18
27 30 28 25 28 27 23 22 21 17 15 14 13 13 13 13 13 11 11 10 9 9 10 13 14 15 15 18 21 23 26 26 26 27 28 28 24 24 28 23 21 21 17
29 27 26 24 25 25 22 20 19 17 16 16 15 15 14 14 14 14 14 15 15 17 18 18 19 20 22 24 25 27 27 28 27 26 25 27 27 24 28 28 18 18 15
30 25 23 22 23 23 21 18 18 17 17 16 17 17 16 16 15 15 15 16 17 18 19 21 22 23 24 25 23 23 22 23 22 19 22 21 20 22 22 22 17 16 16
Wind_Direction
205 204 204 200 196 197 200 205 212 223 238 262 289 310 327 333 336 335 331 319 317 321 322 324 331 339 341 338 333 325 320 321 312 311 310 312 319 321 320 322 324 319 313
205 200 198 199 198 196 202 209 215 225 249 279 294 316 325 329 328 332 332 326 323 323 324 330 332 336 335 333 333 326 322 325 318 315 315 320 322 324 322 322 325 325 318
203 200 199 196 194 199 206 214 219 232 252 277 298 315 316 318 328 333 334 332 330 329 327 326 324 325 326 330 336 328 325 326 327 324 325 325 327 330 333 333 331 330 328
201 200 199 195 196 205 211 215 226 233 253 273 307 308 304 324 329 334 332 327 327 325 325 328 338 343 336 337 340 342 337 336 331 331 330 331 335 338 339 336 334 330 328
199 198 197 196 200 214 211 215 225 230 258 292 305 281 298 315 322 330 332 331 339 344 343 343 351 6 354 349 339 330 333 331 331 331 333 332 336 338 340 338 333 332 330
196 194 193 200 209 209 211 217 221 220 254 294 275 249 267 311 333 338 349 0 15 33 36 26 29 8 357 351 352 349 335 331 323 327 331 332 334 335 334 335 335 333 332
195 194 200 205 211 207 208 213 204 216 270 267 204 213 250 327 342 359 11 21 38 32 27 22 20 11 9 2 359 357 353 344 341 338 330 334 332 330 335 339 338 338 333
195 197 202 202 202 201 204 194 200 218 239 187 185 205 223 320 23 13 23 29 26 15 30 34 26 12 356 346 339 339 339 339 339 340 334 332 330 334 337 334 338 337 338
196 199 199 202 201 200 191 187 198 214 188 186 197 191 193 150 61 49 41 36 12 24 27 23 10 359 353 349 350 349 348 343 340 337 334 334 334 324 331 333 341 346 348
197 198 199 200 201 188 183 185 198 189 187 197 189 190 181 159 124 70 53 58 45 41 24 8 358 357 357 358 -0 0 355 351 352 355 355 350 348 343 352 348 341 347 351
197 197 198 192 184 178 180 188 184 181 189 185 183 181 172 154 116 93 80 73 58 21 7 357 350 352 356 359 3 3 358 349 347 345 344 345 350 350 350 351 339 342 351
196 195 187 174 171 174 186 179 172 167 167 168 172 167 170 164 137 115 90 61 34 19 2 353 346 347 351 353 357 353 346 351 349 349 344 338 342 347 348 352 354 348 353
190 182 169 168 171 175 179 173 158 153 147 149 154 160 165 156 145 125 76 30 16 8 0 352 346 343 347 354 355 356 358 357 355 355 354 349 344 341 353 350 354 345 352
173 165 167 169 172 171 170 166 161 156 147 144 142 158 157 148 150 125 56 19 9 1 359 353 349 348 352 1 3 360 4 5 4 357 357 356 354 356 357 354 357 358 6
169 172 182 179 178 174 169 169 170 165 163 156 142 154 154 158 158 135 22 359 3 356 0 357 359 357 4 5 9 12 12 13 9 7 2 1 2 6 7 10 13 9 4
184 182 181 186 181 173 173 173 175 177 176 174 170 183 195 198 243 255 305 335 340 354 358 356 1 3 9 15 18 18 16 17 20 17 10 6 5 4 3 2 4 5 2
178 182 184 187 184 178 180 184 183 186 193 193 205 222 230 241 262 265 268 293 307 332 326 336 344 357 10 14 13 13 13 17 21 18 16 11 8 2 358 353 354 356 357
188 188 189 191 185 183 185 187 186 192 200 208 218 230 234 239 247 261 251 257 278 284 284 295 318 328 335 345 348 352 359 6 11 18 21 24 19 8 3 356 354 349 347
186 188 195 189 184 182 185 187 188 194 203 219 236 238 230 230 236 249 227 235 245 255 264 274 288 311 318 307 317 335 340 345 358 8 8 15 19 20 7 354 345 342 345
188 193 190 185 183 186 187 187 192 200 215 225 222 212 224 213 225 224 222 230 240 251 260 266 274 287 300 316 318 320 319 314 318 327 336 347 355 0 0 358 347 338 335
186 188 192 186 185 187 188 193 198 205 208 212 200 209 217 208 214 223 230 241 249 256 260 264 270 275 290 296 300 303 300 298 300 305 310 317 327 334 342 347 346 339 332
191 191 192 191 189 194 196 200 206 207 211 203 205 215 216 222 230 242 255 266 268 271 267 270 273 277 281 287 291 292 289 290 292 292 295 297 303 310 319 329 340 336 329
196 195 190 191 195 201 202 204 208 209 210 204 208 218 232 247 255 263 277 279 275 272 269 267 271 276 280 278 282 290 295 298 295 289 294 291 287 288 299 303 324 334 328
203 195 189 189 198 201 204 208 209 213 214 218 225 231 240 251 260 262 264 275 275 277 273 271 274 279 279 282 289 294 298 300 302 303 302 296 286 285 299 296 306 328 321
195 188 192 197 199 203 203 208 213 219 224 233 237 240 243 254 258 251 256 272 277 275 279 281 281 283 283 285 288 293 296 298 295 287 292 297 290 292 292 302 307 321 317
189 188 193 201 201 199 205 213 218 227 227 231 240 244 251 259 258 258 262 269 274 279 283 285 291 296 292 288 290 299 298 298 295 287 289 291 295 297 293 299 306 307 310